When you browse on this site, cookies collect data to enhance your experience and personalize the content and advertising you see.
Visit our Privacy Policy to learn more. By continuing to use the site, you agree to this use of cookies and data.
  • în România
  • Lista ţărilor
  • Pe 7 zile
  • Temperatura apei
  • Hartă satelitară
  • Meteo pe hartă
  • Widget-uri
  • user-avatar
    Intrare

    Meteo pe oră la Sidi Bu-l-Abbas

    Astăzi, 16 Iunie, Duminică

    Timp Temperatura Precipitaţii Vânt Presiune Umiditate
    00:00 +21°C° 0 mm 1 m/s 721 mmHg 37%
    01:00 +21°C° 0 mm 1 m/s 721 mmHg 39%
    02:00 +20°C° 0 mm 1 m/s 721 mmHg 40%
    03:00 +19°C° 0 mm 1 m/s 720 mmHg 42%
    04:00 +20°C° 0 mm 1 m/s 720 mmHg 41%
    05:00 +21°C° 0 mm 1 m/s 720 mmHg 40%
    06:00 +21°C° 0 mm 1 m/s 720 mmHg 41%
    07:00 +23°C° 0 mm 2 m/s 721 mmHg 37%
    08:00 +24°C° 0 mm 2 m/s 721 mmHg 32%
    09:00 +26°C° 0 mm 3 m/s 721 mmHg 28%
    10:00 +27°C° 0 mm 3 m/s 721 mmHg 28%
    11:00 +28°C° 0 mm 4 m/s 721 mmHg 28%
    12:00 +30°C° 0 mm 5 m/s 720 mmHg 28%
    13:00 +30°C° 0 mm 5 m/s 720 mmHg 31%
    14:00 +30°C° 0 mm 6 m/s 720 mmHg 33%
    15:00 +30°C° 0 mm 7 m/s 719 mmHg 36%
    16:00 +28°C° 0 mm 6 m/s 719 mmHg 43%
    17:00 +26°C° 0 mm 6 m/s 719 mmHg 49%
    18:00 +25°C° 0 mm 5 m/s 720 mmHg 56%
    19:00 +22°C° 0 mm 5 m/s 720 mmHg 64%
    20:00 +21°C° 0 mm 4 m/s 721 mmHg 72%
    21:00 +20°C° 0 mm 3 m/s 721 mmHg 80%
    22:00 +19°C° 0 mm 3 m/s 721 mmHg 83%
    23:00 +19°C° 0 mm 3 m/s 721 mmHg 86%

    Mâine, 17 Iunie, Luni

    Timp Temperatura Precipitaţii Vânt Presiune Umiditate
    00:00 +18°C° 0 mm 2 m/s 721 mmHg 90%
    01:00 +18°C° 0 mm 2 m/s 721 mmHg 90%
    02:00 +18°C° 0 mm 2 m/s 721 mmHg 90%
    03:00 +18°C° 0 mm 2 m/s 721 mmHg 90%
    04:00 +18°C° 0 mm 2 m/s 721 mmHg 87%
    05:00 +18°C° 0 mm 2 m/s 721 mmHg 84%
    06:00 +18°C° 0 mm 2 m/s 721 mmHg 81%
    07:00 +19°C° 0 mm 2 m/s 721 mmHg 73%
    08:00 +21°C° 0 mm 1 m/s 721 mmHg 66%
    09:00 +23°C° 0 mm 1 m/s 722 mmHg 58%
    10:00 +24°C° 0 mm 2 m/s 722 mmHg 50%
    11:00 +26°C° 0 mm 3 m/s 721 mmHg 43%
    12:00 +28°C° 0 mm 4 m/s 721 mmHg 35%
    13:00 +29°C° 0 mm 4 m/s 721 mmHg 35%
    14:00 +29°C° 0 mm 5 m/s 721 mmHg 35%
    15:00 +30°C° 0 mm 6 m/s 720 mmHg 34%
    16:00 +29°C° 0 mm 5 m/s 720 mmHg 38%
    17:00 +28°C° 0 mm 5 m/s 720 mmHg 41%
    18:00 +27°C° 0 mm 4 m/s 720 mmHg 44%
    19:00 +25°C° 0 mm 3 m/s 720 mmHg 50%
    20:00 +24°C° 0 mm 2 m/s 720 mmHg 56%
    21:00 +22°C° 0 mm 1 m/s 721 mmHg 62%
    22:00 +22°C° 0 mm 1 m/s 720 mmHg 64%
    23:00 +21°C° 0 mm 1 m/s 720 mmHg 66%

    Poimâine, 18 Iunie, Marţi

    Timp Temperatura Precipitaţii Vânt Presiune Umiditate
    00:00 +19°C° 0 mm 0 m/s 720 mmHg 67%
    01:00 +18°C° 0 mm 0 m/s 720 mmHg 68%
    02:00 +18°C° 0 mm 0 m/s 719 mmHg 69%
    03:00 +18°C° 0 mm 0 m/s 719 mmHg 70%
    04:00 +18°C° 0 mm 0 m/s 719 mmHg 69%
    05:00 +19°C° 0 mm 0 m/s 720 mmHg 67%
    06:00 +20°C° 0 mm 0 m/s 720 mmHg 65%
    07:00 +22°C° 0 mm 0 m/s 720 mmHg 56%
    08:00 +26°C° 0 mm 1 m/s 720 mmHg 48%
    09:00 +28°C° 0 mm 1 m/s 720 mmHg 40%
    10:00 +29°C° 0 mm 2 m/s 721 mmHg 36%
    11:00 +31°C° 0 mm 3 m/s 721 mmHg 32%
    12:00 +34°C° 0 mm 4 m/s 721 mmHg 27%
    13:00 +34°C° 0 mm 4 m/s 720 mmHg 29%
    14:00 +33°C° 0 mm 5 m/s 720 mmHg 31%
    15:00 +33°C° 0 mm 6 m/s 719 mmHg 32%
    16:00 +32°C° 0 mm 5 m/s 719 mmHg 34%
    17:00 +30°C° 0 mm 4 m/s 719 mmHg 37%
    18:00 +29°C° 0 mm 4 m/s 719 mmHg 39%
    19:00 +27°C° 0 mm 3 m/s 719 mmHg 45%
    20:00 +25°C° 0 mm 2 m/s 719 mmHg 51%
    21:00 +23°C° 0 mm 2 m/s 719 mmHg 57%
    22:00 +23°C° 0 mm 2 m/s 719 mmHg 60%
    23:00 +22°C° 0 mm 1 m/s 719 mmHg 63%

    19 Iunie, Miercuri

    Timp Temperatura Precipitaţii Vânt Presiune Umiditate
    00:00 +22°C° 0 mm 1 m/s 720 mmHg 66%
    01:00 +21°C° 0 mm 1 m/s 719 mmHg 68%
    02:00 +21°C° 0 mm 1 m/s 719 mmHg 69%
    03:00 +20°C° 0 mm 1 m/s 719 mmHg 71%
    04:00 +21°C° 0 mm 1 m/s 719 mmHg 67%
    05:00 +21°C° 0 mm 1 m/s 719 mmHg 64%
    06:00 +22°C° 0 mm 1 m/s 720 mmHg 60%
    07:00 +24°C° 0 mm 1 m/s 720 mmHg 49%
    08:00 +26°C° 0 mm 2 m/s 720 mmHg 38%
    09:00 +28°C° 0 mm 2 m/s 720 mmHg 27%
    10:00 +29°C° 0 mm 3 m/s 720 mmHg 25%
    11:00 +31°C° 0 mm 3 m/s 720 mmHg 23%
    12:00 +33°C° 0 mm 3 m/s 720 mmHg 21%
    13:00 +33°C° 0 mm 4 m/s 720 mmHg 23%
    14:00 +33°C° 0 mm 5 m/s 719 mmHg 24%
    15:00 +33°C° 0 mm 6 m/s 718 mmHg 26%
    16:00 +30°C° 0 mm 6 m/s 718 mmHg 29%
    17:00 +29°C° 0 mm 5 m/s 718 mmHg 32%
    18:00 +28°C° 0 mm 5 m/s 718 mmHg 36%
    19:00 +27°C° 0 mm 4 m/s 719 mmHg 38%
    20:00 +25°C° 0 mm 3 m/s 719 mmHg 41%
    21:00 +24°C° 0 mm 2 m/s 719 mmHg 43%
    22:00 +24°C° 0 mm 2 m/s 719 mmHg 44%
    23:00 +23°C° 0 mm 2 m/s 719 mmHg 45%

    20 Iunie, Joi

    Timp Temperatura Precipitaţii Vânt Presiune Umiditate
    00:00 +23°C° 0 mm 2 m/s 719 mmHg 45%
    01:00 +21°C° 0 mm 2 m/s 719 mmHg 46%
    02:00 +21°C° 0 mm 2 m/s 718 mmHg 46%
    03:00 +21°C° 0 mm 1 m/s 718 mmHg 47%
    04:00 +22°C° 0 mm 1 m/s 718 mmHg 46%
    05:00 +22°C° 0 mm 1 m/s 719 mmHg 46%
    06:00 +22°C° 0 mm 1 m/s 719 mmHg 45%
    07:00 +24°C° 0 mm 2 m/s 719 mmHg 40%
    08:00 +26°C° 0 mm 2 m/s 719 mmHg 35%
    09:00 +28°C° 0 mm 2 m/s 720 mmHg 30%
    10:00 +29°C° 0 mm 3 m/s 719 mmHg 30%
    11:00 +30°C° 0 mm 4 m/s 719 mmHg 30%
    12:00 +32°C° 0 mm 5 m/s 719 mmHg 29%
    13:00 +30°C° 0 mm 5 m/s 719 mmHg 31%
    14:00 +30°C° 0 mm 6 m/s 718 mmHg 33%
    15:00 +29°C° 0 mm 7 m/s 717 mmHg 34%
    16:00 +28°C° 0 mm 6 m/s 717 mmHg 35%
    17:00 +27°C° 0 mm 5 m/s 717 mmHg 36%
    18:00 +27°C° 0 mm 4 m/s 717 mmHg 36%
    19:00 +26°C° 0 mm 3 m/s 718 mmHg 39%
    20:00 +24°C° 0 mm 2 m/s 718 mmHg 41%
    21:00 +23°C° 0 mm 1 m/s 718 mmHg 44%
    22:00 +23°C° 0 mm 2 m/s 718 mmHg 43%
    23:00 +23°C° 0 mm 2 m/s 718 mmHg 43%

    21 Iunie, Vineri

    Timp Temperatura Precipitaţii Vânt Presiune Umiditate
    00:00 +21°C° 0 mm 2 m/s 718 mmHg 43%
    01:00 +20°C° 0 mm 2 m/s 718 mmHg 44%
    02:00 +21°C° 0 mm 1 m/s 718 mmHg 46%
    03:00 +20°C° 0 mm 1 m/s 717 mmHg 47%
    04:00 +21°C° 0 mm 1 m/s 718 mmHg 45%
    05:00 +21°C° 0 mm 1 m/s 718 mmHg 43%
    06:00 +22°C° 0 mm 1 m/s 718 mmHg 42%
    07:00 +24°C° 0 mm 3 m/s 719 mmHg 38%
    08:00 +25°C° 0 mm 5 m/s 719 mmHg 35%
    09:00 +27°C° 0 mm 6 m/s 719 mmHg 32%
    10:00 +27°C° 0 mm 7 m/s 719 mmHg 32%
    11:00 +28°C° 0 mm 7 m/s 719 mmHg 31%
    12:00 +29°C° 0 mm 8 m/s 719 mmHg 30%
    13:00 +29°C° 0 mm 7 m/s 719 mmHg 30%
    14:00 +29°C° 0 mm 7 m/s 718 mmHg 29%
    15:00 +29°C° 0 mm 7 m/s 718 mmHg 28%
    16:00 +28°C° 0 mm 7 m/s 718 mmHg 31%
    17:00 +27°C° 0 mm 6 m/s 718 mmHg 33%
    18:00 +26°C° 0 mm 5 m/s 719 mmHg 36%
    19:00 +25°C° 0 mm 4 m/s 719 mmHg 42%
    20:00 +23°C° 0 mm 2 m/s 719 mmHg 49%
    21:00 +19°C° 0 mm 0 m/s 720 mmHg 56%
    22:00 +21°C° 0 mm 1 m/s 720 mmHg 56%
    23:00 +20°C° 0 mm 1 m/s 719 mmHg 57%
    Arată mai mult